Volver al catálogo

COSMOS 1538

ActivoMilitarLEO
NORAD 14759·PAYLOAD·🇷🇺 Russia

Lanzado Feb 21, 1984 desde Plesetsk Cosmodrome

Loading…

Próximos Pases (próximas 24 horas)

TLE

ActualizadoSource: Space-Track

Época: Sep 14, 2026, 20:23 UTC

1 14759U 84019A   26257.84969987  .00000058  00000-0  29635-4 0  9992
2 14759  74.0384 115.1393 0021803 243.2294 116.6628 14.34540344225828

Sigue COSMOS 1538 en tiempo real con AllMySat

Download on the App Store